| time (UTC) | temp F | wind direction | speed MPH | gust MPH | rain 1hr in | rain 24hr in | rain mn in | humidity % | barometer mb |
| 20260904092510 | 77 | 133 | 1.0 | 6.0 | 0.00 | 0.00 | 0.00 | 72 | 1013.8 |
| 20260904092007 | 77 | 133 | 1.0 | 6.0 | 0.00 | 0.00 | 0.00 | 72 | 1013.7 |
| 20260904091507 | 77 | 133 | 1.0 | 3.0 | 0.00 | 0.00 | 0.00 | 72 | 1013.8 |
| 20260904091007 | 77 | 133 | 1.0 | 4.0 | 0.00 | 0.00 | 0.00 | 72 | 1013.8 |
| 20260904090505 | 77 | 133 | 1.0 | 5.0 | 0.00 | 0.00 | 0.00 | 72 | 1013.8 |
| 20260904090005 | 77 | 134 | 1.0 | 5.0 | 0.00 | 0.00 | 0.00 | 72 | 1013.8 |
| 20260904085505 | 77 | 133 | 0.0 | 5.0 | 0.00 | 0.00 | 0.00 | 72 | 1013.8 |
| 20260904085005 | 77 | 134 | 1.0 | 5.0 | 0.00 | 0.00 | 0.00 | 72 | 1013.8 |
| 20260904084506 | 77 | 134 | 2.0 | 4.0 | 0.00 | 0.00 | 0.00 | 72 | 1013.8 |
| 20260904084005 | 78 | 133 | 0.0 | 6.0 | 0.00 | 0.00 | 0.00 | 72 | 1013.7 |
| 20260904083506 | 78 | 133 | 1.0 | 6.0 | 0.00 | 0.00 | 0.00 | 72 | 1013.7 |
| 20260904083003 | 78 | 133 | 1.0 | 6.0 | 0.00 | 0.00 | 0.00 | 72 | 1013.7 |
| 20260904082503 | 78 | 134 | 2.0 | 5.0 | 0.00 | 0.00 | 0.00 | 72 | 1013.8 |
| 20260904082004 | 78 | 134 | 1.0 | 6.0 | 0.00 | 0.00 | 0.00 | 72 | 1013.9 |
| 20260904081505 | 78 | 134 | 2.0 | 6.0 | 0.00 | 0.00 | 0.00 | 72 | 1013.9 |
| 20260904081101 | 78 | 134 | 1.0 | 5.0 | 0.00 | 0.00 | 0.00 | 72 | 1013.9 |
| 20260904081001 | 78 | 134 | 1.0 | 5.0 | 0.00 | 0.00 | 0.00 | 72 | 1013.9 |
| 20260904080603 | 78 | 134 | 1.0 | 8.0 | 0.00 | 0.00 | 0.00 | 72 | 1013.9 |
| 20260904075601 | 78 | 133 | 1.0 | 6.0 | 0.00 | 0.00 | 0.00 | 72 | 1014.1 |
| 20260904075100 | 78 | 133 | 2.0 | 7.0 | 0.00 | 0.00 | 0.00 | 72 | 1014.0 |
| 20260904074600 | 78 | 132 | 1.0 | 7.0 | 0.00 | 0.00 | 0.00 | 72 | 1014.0 |
| 20260904074059 | 78 | 132 | 1.0 | 6.0 | 0.00 | 0.00 | 0.00 | 72 | 1014.1 |
| 20260904073659 | 78 | 132 | 1.0 | 4.0 | 0.00 | 0.00 | 0.00 | 72 | 1014.2 |
| 20260904073110 | 78 | 132 | 1.0 | 5.0 | 0.00 | 0.00 | 0.00 | 72 | 1014.2 |
| 20260904072558 | 78 | 132 | 1.0 | 4.0 | 0.00 | 0.00 | 0.00 | 72 | 1014.2 |
| 20260904072056 | 78 | 132 | 1.0 | 6.0 | 0.00 | 0.00 | 0.00 | 72 | 1014.3 |
| 20260904071557 | 78 | 132 | 1.0 | 7.0 | 0.00 | 0.00 | 0.00 | 72 | 1014.3 |
| 20260904071056 | 78 | 132 | 1.0 | 7.0 | 0.00 | 0.00 | 0.00 | 72 | 1014.4 |
| 20260904070557 | 78 | 133 | 2.0 | 6.0 | 0.00 | 0.00 | 0.00 | 72 | 1014.4 |
| 20260904070055 | 78 | 133 | 2.0 | 6.0 | 0.00 | 0.00 | 0.00 | 72 | 1014.4 |
| 20260904065556 | 79 | 134 | 2.0 | 6.0 | 0.00 | 0.00 | 0.00 | 72 | 1014.4 |
| 20260904065054 | 79 | 134 | 1.0 | 6.0 | 0.00 | 0.00 | 0.00 | 72 | 1014.5 |
| 20260904064555 | 79 | 134 | 2.0 | 6.0 | 0.00 | 0.00 | 0.00 | 72 | 1014.6 |
| 20260904064058 | 79 | 133 | 2.0 | 8.0 | 0.00 | 0.00 | 0.00 | 72 | 1014.6 |
| 20260904063553 | 79 | 133 | 2.0 | 8.0 | 0.00 | 0.00 | 0.00 | 72 | 1014.6 |
| 20260904063104 | 79 | 130 | 2.0 | 6.0 | 0.00 | 0.00 | 0.00 | 72 | 1014.6 |
| 20260904062553 | 79 | 130 | 2.0 | 7.0 | 0.00 | 0.00 | 0.00 | 72 | 1014.6 |
| 20260904062053 | 79 | 130 | 3.0 | 7.0 | 0.00 | 0.00 | 0.00 | 72 | 1014.5 |
| 20260904061552 | 79 | 120 | 1.0 | 7.0 | 0.00 | 0.00 | 0.00 | 71 | 1014.5 |
| 20260904061052 | 79 | 120 | 2.0 | 11.0 | 0.00 | 0.00 | 0.00 | 71 | 1014.5 |
| 20260904060553 | 79 | 123 | 2.0 | 11.0 | 0.00 | 0.00 | 0.00 | 71 | 1014.6 |
| 20260904055551 | 79 | 133 | 2.0 | 7.0 | 0.00 | 0.00 | 0.00 | 71 | 1014.5 |
| 20260904055050 | 79 | 132 | 2.0 | 7.0 | 0.00 | 0.00 | 0.00 | 71 | 1014.4 |
| 20260904054608 | 79 | 133 | 2.0 | 8.0 | 0.00 | 0.00 | 0.00 | 71 | 1014.4 |
| 20260904054049 | 79 | 131 | 2.0 | 8.0 | 0.00 | 0.00 | 0.00 | 71 | 1014.6 |
| 20260904053548 | 79 | 130 | 3.0 | 9.0 | 0.00 | 0.00 | 0.00 | 71 | 1014.4 |
| 20260904053048 | 79 | 128 | 3.0 | 9.0 | 0.00 | 0.00 | 0.00 | 71 | 1014.3 |
| 20260904052546 | 80 | 89 | 3.0 | 9.0 | 0.00 | 0.00 | 0.00 | 71 | 1014.3 |
| 20260904052046 | 80 | 131 | 2.0 | 8.0 | 0.00 | 0.00 | 0.00 | 71 | 1014.3 |
| 20260904051545 | 80 | 131 | 2.0 | 8.0 | 0.00 | 0.00 | 0.00 | 70 | 1014.3 |
| 20260904051042 | 80 | 130 | 2.0 | 10.0 | 0.00 | 0.00 | 0.00 | 70 | 1014.2 |
| 20260904050542 | 80 | 119 | 3.0 | 9.0 | 0.00 | 0.00 | 0.00 | 70 | 1014.2 |
| 20260904050043 | 80 | 130 | 2.0 | 9.0 | 0.00 | 0.00 | 0.00 | 70 | 1014.2 |
| 20260904045541 | 80 | 98 | 4.0 | 10.0 | 0.00 | 0.00 | 0.00 | 69 | 1014.3 |
| 20260904045041 | 81 | 128 | 4.0 | 15.0 | 0.00 | 0.00 | 0.00 | 69 | 1014.4 |
| 20260904044547 | 81 | 116 | 4.0 | 15.0 | 0.00 | 0.00 | 0.00 | 68 | 1014.2 |
| 20260904044040 | 81 | 121 | 3.0 | 8.0 | 0.00 | 0.00 | 0.00 | 68 | 1014.2 |
| 20260904043540 | 81 | 126 | 3.0 | 9.0 | 0.00 | 0.00 | 0.00 | 68 | 1014.2 |
| 20260904043044 | 81 | 130 | 2.0 | 9.0 | 0.00 | 0.00 | 0.00 | 68 | 1014.2 |
| 20260904042541 | 81 | 122 | 4.0 | 10.0 | 0.00 | 0.00 | 0.00 | 67 | 1014.2 |
| 20260904042040 | 81 | 130 | 3.0 | 9.0 | 0.00 | 0.00 | 0.00 | 67 | 1014.2 |
| 20260904041540 | 82 | 121 | 3.0 | 9.0 | 0.00 | 0.00 | 0.00 | 66 | 1014.1 |
| 20260904041038 | 82 | 121 | 3.0 | 7.0 | 0.00 | 0.00 | 0.00 | 66 | 1014.1 |
| 20260904040538 | 82 | 132 | 4.0 | 8.0 | 0.00 | 0.00 | 0.00 | 65 | 1014.1 |
| 20260904040040 | 82 | 135 | 3.0 | 13.0 | 0.00 | 0.00 | 0.00 | 65 | 1014.1 |
| 20260904035538 | 82 | 137 | 5.0 | 13.0 | 0.00 | 0.00 | 0.00 | 65 | 1014.2 |
| 20260904035038 | 82 | 138 | 4.0 | 8.0 | 0.00 | 0.00 | 0.00 | 65 | 1014.1 |
| 20260904034537 | 82 | 128 | 2.0 | 9.0 | 0.00 | 0.00 | 0.00 | 64 | 1014.1 |
| 20260904034037 | 82 | 105 | 3.0 | 9.0 | 0.00 | 0.00 | 0.00 | 64 | 1014.0 |
| 20260904033540 | 82 | 119 | 4.0 | 9.0 | 0.00 | 0.00 | 0.00 | 64 | 1014.0 |
| 20260904033038 | 82 | 119 | 2.0 | 9.0 | 0.00 | 0.00 | 0.00 | 63 | 1013.9 |
| 20260904032536 | 82 | 131 | 3.0 | 9.0 | 0.00 | 0.00 | 0.00 | 63 | 1013.7 |
| 20260904032036 | 83 | 111 | 2.0 | 5.0 | 0.00 | 0.00 | 0.00 | 63 | 1013.7 |
| 20260904031538 | 83 | 107 | 2.0 | 9.0 | 0.00 | 0.00 | 0.00 | 63 | 1013.7 |
| 20260904031035 | 83 | 116 | 2.0 | 7.0 | 0.00 | 0.00 | 0.00 | 63 | 1013.6 |
| 20260904030534 | 83 | 109 | 2.0 | 9.0 | 0.00 | 0.00 | 0.00 | 63 | 1013.6 |
| 20260904030034 | 83 | 103 | 3.0 | 9.0 | 0.00 | 0.00 | 0.00 | 62 | 1013.4 |
| 20260904025534 | 83 | 105 | 3.0 | 9.0 | 0.00 | 0.00 | 0.00 | 62 | 1013.3 |
| 20260904025034 | 83 | 113 | 3.0 | 9.0 | 0.00 | 0.00 | 0.00 | 62 | 1013.3 |
| 20260904024536 | 83 | 95 | 3.0 | 9.0 | 0.00 | 0.00 | 0.00 | 62 | 1013.2 |
| 20260904024033 | 83 | 119 | 2.0 | 11.0 | 0.00 | 0.00 | 0.00 | 62 | 1013.2 |
| 20260904023533 | 83 | 114 | 3.0 | 11.0 | 0.00 | 0.00 | 0.00 | 62 | 1013.1 |
| 20260904023033 | 83 | 101 | 3.0 | 10.0 | 0.00 | 0.00 | 0.00 | 61 | 1013.0 |
| 20260904022533 | 84 | 103 | 2.0 | 8.0 | 0.00 | 0.00 | 0.00 | 61 | 1013.1 |
| 20260904022033 | 84 | 102 | 2.0 | 8.0 | 0.00 | 0.00 | 0.00 | 61 | 1013.1 |
| 20260904021533 | 84 | 103 | 4.0 | 11.0 | 0.00 | 0.00 | 0.00 | 60 | 1013.0 |
| 20260904021032 | 84 | 113 | 5.0 | 11.0 | 0.00 | 0.00 | 0.00 | 60 | 1012.9 |
| 20260904020532 | 84 | 101 | 3.0 | 11.0 | 0.00 | 0.00 | 0.00 | 60 | 1012.8 |
| 20260904020032 | 84 | 111 | 3.0 | 11.0 | 0.00 | 0.00 | 0.00 | 59 | 1012.8 |
| 20260904015532 | 84 | 99 | 3.0 | 11.0 | 0.00 | 0.00 | 0.00 | 59 | 1012.7 |
| 20260904015035 | 85 | 103 | 4.0 | 10.0 | 0.00 | 0.00 | 0.00 | 58 | 1012.6 |
| 20260904014556 | 85 | 111 | 2.0 | 15.0 | 0.00 | 0.00 | 0.00 | 58 | 1012.6 |
| 20260904014031 | 85 | 69 | 5.0 | 13.0 | 0.00 | 0.00 | 0.00 | 58 | 1012.4 |
| 20260904013532 | 85 | 98 | 5.0 | 12.0 | 0.00 | 0.00 | 0.00 | 57 | 1012.5 |
| 20260904013033 | 85 | 117 | 5.0 | 16.0 | 0.00 | 0.00 | 0.00 | 57 | 1012.4 |
| 20260904012531 | 85 | 106 | 5.0 | 16.0 | 0.00 | 0.00 | 0.00 | 57 | 1012.3 |
| 20260904012031 | 85 | 107 | 6.0 | 15.0 | 0.00 | 0.00 | 0.00 | 58 | 1012.2 |
| 20260904011531 | 86 | 100 | 5.0 | 16.0 | 0.00 | 0.00 | 0.00 | 59 | 1012.1 |
| 20260904011031 | 86 | 68 | 5.0 | 15.0 | 0.00 | 0.00 | 0.00 | 59 | 1011.9 |
| 20260904010532 | 86 | 117 | 6.0 | 15.0 | 0.00 | 0.00 | 0.00 | 59 | 1011.9 |
| 20260904010030 | 86 | 102 | 6.0 | 17.0 | 0.00 | 0.00 | 0.00 | 58 | 1011.8 |
| 20260904005530 | 86 | 128 | 7.0 | 18.0 | 0.00 | 0.00 | 0.00 | 58 | 1011.8 |
| 20260904005029 | 87 | 92 | 9.0 | 18.0 | 0.00 | 0.00 | 0.00 | 57 | 1011.8 |
| 20260904004529 | 87 | 119 | 4.0 | 17.0 | 0.00 | 0.00 | 0.00 | 56 | 1011.9 |
| 20260904004032 | 88 | 92 | 6.0 | 19.0 | 0.00 | 0.00 | 0.00 | 55 | 1011.8 |
| 20260904003529 | 88 | 98 | 5.0 | 19.0 | 0.00 | 0.00 | 0.00 | 54 | 1011.7 |
| 20260904003033 | 88 | 98 | 9.0 | 18.0 | 0.00 | 0.00 | 0.00 | 53 | 1011.6 |
| 20260904002528 | 89 | 115 | 6.0 | 18.0 | 0.00 | 0.00 | 0.00 | 52 | 1011.7 |
| 20260904002029 | 90 | 82 | 10.0 | 21.0 | 0.00 | 0.00 | 0.00 | 50 | 1011.6 |
| 20260904001528 | 90 | 101 | 8.0 | 21.0 | 0.00 | 0.00 | 0.00 | 49 | 1011.6 |
| 20260904001029 | 91 | 102 | 8.0 | 19.0 | 0.00 | 0.00 | 0.00 | 47 | 1011.5 |
| 20260904000528 | 92 | 99 | 9.0 | 19.0 | 0.00 | 0.00 | 0.00 | 46 | 1011.4 |
| 20260904000028 | 92 | 110 | 6.0 | 15.0 | 0.00 | 0.00 | 0.00 | 45 | 1011.3 |
| 20260903235527 | 92 | 101 | 5.0 | 16.0 | 0.00 | 0.00 | 0.00 | 45 | 1011.3 |
| 20260903235027 | 92 | 146 | 7.0 | 15.0 | 0.00 | 0.00 | 0.00 | 45 | 1011.2 |
| 20260903234538 | 92 | 106 | 6.0 | 14.0 | 0.00 | 0.00 | 0.00 | 45 | 1011.3 |
| 20260903234026 | 92 | 95 | 5.0 | 16.0 | 0.00 | 0.00 | 0.00 | 45 | 1011.3 |
| 20260903233528 | 92 | 98 | 7.0 | 16.0 | 0.00 | 0.00 | 0.00 | 45 | 1011.3 |
| 20260903233032 | 92 | 86 | 5.0 | 16.0 | 0.00 | 0.00 | 0.00 | 45 | 1011.3 |
| 20260903232525 | 93 | 94 | 7.0 | 17.0 | 0.00 | 0.00 | 0.00 | 44 | 1011.3 |
| 20260903232025 | 93 | 107 | 8.0 | 13.0 | 0.00 | 0.00 | 0.00 | 43 | 1011.2 |
| 20260903231527 | 93 | 81 | 5.0 | 15.0 | 0.00 | 0.00 | 0.00 | 44 | 1011.2 |
| 20260903231024 | 94 | 115 | 4.0 | 15.0 | 0.00 | 0.00 | 0.00 | 42 | 1011.2 |
| 20260903230526 | 94 | 107 | 5.0 | 18.0 | 0.00 | 0.00 | 0.00 | 42 | 1011.1 |
| 20260903230032 | 94 | 94 | 8.0 | 18.0 | 0.00 | 0.00 | 0.00 | 42 | 1011.0 |
| 20260903225527 | 94 | 104 | 8.0 | 17.0 | 0.00 | 0.00 | 0.00 | 42 | 1011.0 |
| 20260903225024 | 94 | 81 | 6.0 | 14.0 | 0.00 | 0.00 | 0.00 | 42 | 1011.0 |
| 20260903224524 | 94 | 107 | 8.0 | 14.0 | 0.00 | 0.00 | 0.00 | 41 | 1011.0 |
| 20260903224024 | 96 | 115 | 4.0 | 16.0 | 0.00 | 0.00 | 0.00 | 40 | 1010.9 |
| 20260903223524 | 97 | 149 | 7.0 | 16.0 | 0.00 | 0.00 | 0.00 | 39 | 1010.9 |
| 20260903223022 | 97 | 64 | 4.0 | 10.0 | 0.00 | 0.00 | 0.00 | 38 | 1010.9 |
| 20260903222521 | 97 | 115 | 3.0 | 11.0 | 0.00 | 0.00 | 0.00 | 37 | 1010.8 |
| 20260903222021 | 97 | 118 | 3.0 | 11.0 | 0.00 | 0.00 | 0.00 | 36 | 1010.8 |
| 20260903221520 | 97 | 96 | 4.0 | 10.0 | 0.00 | 0.00 | 0.00 | 37 | 1010.8 |
| 20260903221021 | 97 | 111 | 3.0 | 11.0 | 0.00 | 0.00 | 0.00 | 38 | 1010.9 |
| 20260903220520 | 97 | 101 | 4.0 | 10.0 | 0.00 | 0.00 | 0.00 | 39 | 1010.9 |
| 20260903220019 | 98 | 97 | 5.0 | 10.0 | 0.00 | 0.00 | 0.00 | 37 | 1010.9 |
| 20260903215518 | 99 | 116 | 4.0 | 13.0 | 0.00 | 0.00 | 0.00 | 37 | 1010.9 |
| 20260903215018 | 98 | 65 | 5.0 | 11.0 | 0.00 | 0.00 | 0.00 | 38 | 1011.0 |
| 20260903214529 | 98 | 118 | 1.0 | 7.0 | 0.00 | 0.00 | 0.00 | 37 | 1011.0 |
| 20260903214017 | 98 | 114 | 1.0 | 8.0 | 0.00 | 0.00 | 0.00 | 38 | 1011.1 |
| 20260903213517 | 97 | 98 | 2.0 | 8.0 | 0.00 | 0.00 | 0.00 | 39 | 1011.0 |
| 20260903213022 | 97 | 98 | 2.0 | 8.0 | 0.00 | 0.00 | 0.00 | 38 | 1011.2 |
| 20260903212514 | 98 | 96 | 2.0 | 14.0 | 0.00 | 0.00 | 0.00 | 37 | 1011.3 |
| 20260903212015 | 99 | 98 | 6.0 | 14.0 | 0.00 | 0.00 | 0.00 | 35 | 1011.3 |
| 20260903211513 | 100 | 103 | 4.0 | 10.0 | 0.00 | 0.00 | 0.00 | 35 | 1011.3 |
| 20260903211012 | 99 | 101 | 3.0 | 10.0 | 0.00 | 0.00 | 0.00 | 36 | 1011.4 |
| 20260903210512 | 99 | 114 | 2.0 | 11.0 | 0.00 | 0.00 | 0.00 | 37 | 1011.5 |
| 20260903210015 | 100 | 96 | 4.0 | 11.0 | 0.00 | 0.00 | 0.00 | 36 | 1011.5 |
| 20260903205509 | 100 | 136 | 4.0 | 8.0 | 0.00 | 0.00 | 0.00 | 36 | 1011.6 |
| 20260903205009 | 100 | 153 | 0.0 | 7.0 | 0.00 | 0.00 | 0.00 | 34 | 1011.7 |
| 20260903204508 | 100 | 153 | 3.0 | 7.0 | 0.00 | 0.00 | 0.00 | 35 | 1011.8 |
| 20260903204007 | 99 | 101 | 1.0 | 5.0 | 0.00 | 0.00 | 0.00 | 36 | 1011.9 |
| 20260903203506 | 99 | 101 | 0.0 | 7.0 | 0.00 | 0.00 | 0.00 | 34 | 1011.9 |
| 20260903203006 | 100 | 94 | 1.0 | 7.0 | 0.00 | 0.00 | 0.00 | 34 | 1012.1 |
| 20260903202504 | 100 | 92 | 1.0 | 8.0 | 0.00 | 0.00 | 0.00 | 35 | 1012.1 |
| 20260903202003 | 100 | 131 | 1.0 | 7.0 | 0.00 | 0.00 | 0.00 | 35 | 1012.1 |
| 20260903201503 | 100 | 135 | 2.0 | 7.0 | 0.00 | 0.00 | 0.00 | 36 | 1012.3 |
| 20260903201003 | 99 | 134 | 0.0 | 5.0 | 0.00 | 0.00 | 0.00 | 37 | 1012.2 |
| 20260903200502 | 99 | 132 | 1.0 | 6.0 | 0.00 | 0.00 | 0.00 | 36 | 1012.3 |
| 20260903200001 | 100 | 99 | 2.0 | 7.0 | 0.00 | 0.00 | 0.00 | 34 | 1012.3 |
| 20260903195559 | 99 | 97 | 3.0 | 7.0 | 0.00 | 0.00 | 0.00 | 38 | 1012.3 |
| 20260903195059 | 99 | 115 | 1.0 | 5.0 | 0.00 | 0.00 | 0.00 | 37 | 1012.3 |
| 20260903194558 | 99 | 116 | 1.0 | 5.0 | 0.00 | 0.00 | 0.00 | 38 | 1012.4 |
| 20260903194058 | 99 | 121 | 2.0 | 7.0 | 0.00 | 0.00 | 0.00 | 39 | 1012.5 |
| 20260903193556 | 98 | 118 | 1.0 | 7.0 | 0.00 | 0.00 | 0.00 | 41 | 1012.5 |
| 20260903193105 | 98 | 115 | 1.0 | 9.0 | 0.00 | 0.00 | 0.00 | 40 | 1012.7 |
| 20260903192555 | 98 | 104 | 3.0 | 10.0 | 0.00 | 0.00 | 0.00 | 40 | 1012.7 |
| 20260903192055 | 99 | 131 | 2.0 | 10.0 | 0.00 | 0.00 | 0.00 | 40 | 1012.8 |
| 20260903191553 | 99 | 122 | 1.0 | 8.0 | 0.00 | 0.00 | 0.00 | 39 | 1012.8 |
| 20260903191052 | 98 | 130 | 1.0 | 8.0 | 0.00 | 0.00 | 0.00 | 40 | 1012.9 |
| 20260903190555 | 98 | 144 | 1.0 | 8.0 | 0.00 | 0.00 | 0.00 | 40 | 1013.0 |
| 20260903190051 | 98 | 111 | 2.0 | 7.0 | 0.00 | 0.00 | 0.00 | 42 | 1013.1 |
| 20260903185549 | 97 | 108 | 1.0 | 7.0 | 0.00 | 0.00 | 0.00 | 42 | 1013.2 |
| 20260903185049 | 97 | 107 | 0.0 | 8.0 | 0.00 | 0.00 | 0.00 | 42 | 1013.3 |
| 20260903184555 | 97 | 100 | 3.0 | 8.0 | 0.00 | 0.00 | 0.00 | 43 | 1013.5 |
| 20260903184048 | 96 | 140 | 0.0 | 6.0 | 0.00 | 0.00 | 0.00 | 42 | 1013.6 |
| 20260903183544 | 96 | 140 | 1.0 | 8.0 | 0.00 | 0.00 | 0.00 | 41 | 1013.7 |
| 20260903183044 | 96 | 132 | 3.0 | 7.0 | 0.00 | 0.00 | 0.00 | 41 | 1013.7 |
| 20260903182544 | 97 | 123 | 0.0 | 5.0 | 0.00 | 0.00 | 0.00 | 43 | 1013.8 |
| 20260903182042 | 96 | 123 | 1.0 | 5.0 | 0.00 | 0.00 | 0.00 | 44 | 1013.9 |
| 20260903181544 | 96 | 135 | 0.0 | 8.0 | 0.00 | 0.00 | 0.00 | 45 | 1013.9 |
| 20260903181041 | 95 | 122 | 1.0 | 4.0 | 0.00 | 0.00 | 0.00 | 46 | 1014.0 |
| 20260903180538 | 94 | 122 | 0.0 | 8.0 | 0.00 | 0.00 | 0.00 | 45 | 1014.0 |
| 20260903180039 | 94 | 121 | 2.0 | 8.0 | 0.00 | 0.00 | 0.00 | 46 | 1014.1 |
| 20260903175536 | 94 | 137 | 3.0 | 6.0 | 0.00 | 0.00 | 0.00 | 45 | 1014.1 |
| 20260903175035 | 93 | 133 | 2.0 | 6.0 | 0.00 | 0.00 | 0.00 | 50 | 1014.1 |
| 20260903174537 | 93 | 132 | 1.0 | 6.0 | 0.00 | 0.00 | 0.00 | 49 | 1014.2 |
| 20260903174033 | 94 | 142 | 1.0 | 5.0 | 0.00 | 0.00 | 0.00 | 50 | 1014.3 |
| 20260903173534 | 93 | 145 | 0.0 | 5.0 | 0.00 | 0.00 | 0.00 | 50 | 1014.4 |
| 20260903173036 | 93 | 145 | 1.0 | 10.0 | 0.00 | 0.00 | 0.00 | 48 | 1014.4 |
| 20260903172528 | 92 | 144 | 1.0 | 10.0 | 0.00 | 0.00 | 0.00 | 51 | 1014.5 |
| 20260903172028 | 91 | 150 | 0.0 | 4.0 | 0.00 | 0.00 | 0.00 | 53 | 1014.6 |
| 20260903171526 | 91 | 150 | 1.0 | 4.0 | 0.00 | 0.00 | 0.00 | 54 | 1014.7 |
| 20260903171028 | 91 | 150 | 0.0 | 5.0 | 0.00 | 0.00 | 0.00 | 54 | 1014.7 |
| 20260903170524 | 90 | 151 | 1.0 | 6.0 | 0.00 | 0.00 | 0.00 | 58 | 1014.8 |
| 20260903170030 | 89 | 159 | 1.0 | 6.0 | 0.00 | 0.00 | 0.00 | 58 | 1014.9 |
| 20260903165522 | 89 | 159 | 1.0 | 5.0 | 0.00 | 0.00 | 0.00 | 58 | 1014.9 |
| 20260903165025 | 89 | 160 | 1.0 | 5.0 | 0.00 | 0.00 | 0.00 | 58 | 1014.9 |
| 20260903164521 | 89 | 160 | 1.0 | 5.0 | 0.00 | 0.00 | 0.00 | 59 | 1014.9 |
| 20260903164021 | 89 | 162 | 1.0 | 4.0 | 0.00 | 0.00 | 0.00 | 58 | 1015.0 |
| 20260903163522 | 90 | 163 | 2.0 | 5.0 | 0.00 | 0.00 | 0.00 | 56 | 1015.1 |
| 20260903163020 | 90 | 148 | 2.0 | 8.0 | 0.00 | 0.00 | 0.00 | 57 | 1015.0 |
| 20260903162517 | 90 | 148 | 2.0 | 8.0 | 0.00 | 0.00 | 0.00 | 56 | 1015.1 |
| 20260903162016 | 90 | 136 | 1.0 | 4.0 | 0.00 | 0.00 | 0.00 | 58 | 1015.0 |
| 20260903161515 | 89 | 136 | 1.0 | 6.0 | 0.00 | 0.00 | 0.00 | 58 | 1015.0 |
| 20260903161014 | 89 | 136 | 2.0 | 6.0 | 0.00 | 0.00 | 0.00 | 59 | 1015.0 |
| 20260903160512 | 88 | 138 | 1.0 | 8.0 | 0.00 | 0.00 | 0.00 | 60 | 1015.0 |
| 20260903160011 | 88 | 138 | 2.0 | 8.0 | 0.00 | 0.00 | 0.00 | 61 | 1015.0 |
| 20260903155509 | 87 | 138 | 0.0 | 8.0 | 0.00 | 0.00 | 0.00 | 61 | 1015.0 |
| 20260903155009 | 87 | 137 | 2.0 | 8.0 | 0.00 | 0.00 | 0.00 | 62 | 1015.0 |
| 20260903154508 | 87 | 276 | 1.0 | 5.0 | 0.00 | 0.00 | 0.00 | 63 | 1014.9 |
| 20260903154005 | 86 | 159 | 1.0 | 6.0 | 0.00 | 0.00 | 0.00 | 62 | 1015.0 |
| 20260903153504 | 86 | 169 | 1.0 | 6.0 | 0.00 | 0.00 | 0.00 | 63 | 1015.0 |
| 20260903153003 | 86 | 177 | 1.0 | 4.0 | 0.00 | 0.00 | 0.00 | 64 | 1015.0 |
| 20260903152502 | 85 | 178 | 1.0 | 4.0 | 0.00 | 0.00 | 0.00 | 65 | 1015.0 |
| 20260903152103 | 85 | 181 | 0.0 | 4.0 | 0.00 | 0.00 | 0.00 | 66 | 1015.0 |
| 20260903151559 | 84 | 182 | 1.0 | 4.0 | 0.00 | 0.00 | 0.00 | 67 | 1015.0 |
| 20260903151100 | 84 | 182 | 2.0 | 4.0 | 0.00 | 0.00 | 0.00 | 68 | 1015.0 |
| 20260903150557 | 83 | 185 | 1.0 | 4.0 | 0.00 | 0.00 | 0.00 | 67 | 1014.9 |
| 20260903150056 | 83 | 186 | 1.0 | 4.0 | 0.00 | 0.00 | 0.00 | 68 | 1015.0 |
| 20260903145554 | 83 | 193 | 1.0 | 4.0 | 0.00 | 0.00 | 0.00 | 68 | 1015.0 |
| 20260903145053 | 82 | 242 | 0.0 | 3.0 | 0.00 | 0.00 | 0.00 | 69 | 1015.0 |
| 20260903144555 | 82 | 244 | 1.0 | 4.0 | 0.00 | 0.00 | 0.00 | 69 | 1015.0 |
| 20260903144054 | 82 | 244 | 1.0 | 4.0 | 0.00 | 0.00 | 0.00 | 69 | 1015.0 |
| 20260903143551 | 82 | 165 | 1.0 | 3.0 | 0.00 | 0.00 | 0.00 | 69 | 1015.0 |
| 20260903143057 | 82 | 165 | 1.0 | 4.0 | 0.00 | 0.00 | 0.00 | 69 | 1015.0 |
| 20260903142554 | 81 | 126 | 0.0 | 5.0 | 0.00 | 0.00 | 0.00 | 71 | 1015.1 |
| 20260903142048 | 81 | 126 | 1.0 | 4.0 | 0.00 | 0.00 | 0.00 | 71 | 1015.1 |
| 20260903141551 | 80 | 126 | 1.0 | 9.0 | 0.00 | 0.00 | 0.00 | 71 | 1015.0 |
| 20260903141049 | 80 | 126 | 2.0 | 9.0 | 0.00 | 0.00 | 0.00 | 71 | 1015.1 |
| 20260903140547 | 80 | 136 | 1.0 | 6.0 | 0.00 | 0.00 | 0.00 | 71 | 1015.1 |
| 20260903140047 | 79 | 134 | 1.0 | 6.0 | 0.00 | 0.00 | 0.00 | 72 | 1015.2 |
| 20260903135545 | 79 | 134 | 0.0 | 4.0 | 0.00 | 0.00 | 0.00 | 72 | 1015.2 |
| 20260903135045 | 79 | 134 | 1.0 | 3.0 | 0.00 | 0.00 | 0.00 | 72 | 1015.2 |
| 20260903134551 | 79 | 134 | 0.0 | 3.0 | 0.00 | 0.00 | 0.00 | 72 | 1015.2 |
| 20260903134043 | 78 | 134 | 1.0 | 4.0 | 0.00 | 0.00 | 0.00 | 72 | 1015.3 |
| 20260903133542 | 78 | 134 | 1.0 | 4.0 | 0.00 | 0.00 | 0.00 | 72 | 1015.2 |
| 20260903133043 | 78 | 134 | 0.0 | 5.0 | 0.00 | 0.00 | 0.00 | 72 | 1015.3 |
| 20260903132542 | 78 | 134 | 1.0 | 5.0 | 0.00 | 0.00 | 0.00 | 72 | 1015.3 |
| 20260903132041 | 78 | 134 | 0.0 | 4.0 | 0.00 | 0.00 | 0.00 | 72 | 1015.2 |
| 20260903131540 | 78 | 134 | 0.0 | 8.0 | 0.00 | 0.00 | 0.00 | 72 | 1015.3 |
| 20260903131141 | 78 | 134 | 1.0 | 8.0 | 0.00 | 0.00 | 0.00 | 72 | 1015.2 |
| 20260903130538 | 78 | 136 | 1.0 | 6.0 | 0.00 | 0.00 | 0.00 | 72 | 1015.2 |
| 20260903130045 | 78 | 136 | 1.0 | 3.0 | 0.00 | 0.00 | 0.00 | 72 | 1015.2 |
| 20260903125541 | 78 | 136 | 0.0 | 4.0 | 0.00 | 0.00 | 0.00 | 72 | 1015.0 |
| 20260903125036 | 78 | 136 | 1.0 | 4.0 | 0.00 | 0.00 | 0.00 | 72 | 1015.1 |
| 20260903124552 | 78 | 136 | 0.0 | 8.0 | 0.00 | 0.00 | 0.00 | 72 | 1015.1 |
| 20260903124036 | 78 | 136 | 1.0 | 8.0 | 0.00 | 0.00 | 0.00 | 72 | 1015.0 |
| 20260903123534 | 78 | 138 | 0.0 | 3.0 | 0.00 | 0.00 | 0.00 | 72 | 1015.0 |
| 20260903123035 | 78 | 138 | 1.0 | 3.0 | 0.00 | 0.00 | 0.00 | 72 | 1014.9 |
| 20260903122532 | 78 | 138 | 0.0 | 6.0 | 0.00 | 0.00 | 0.00 | 72 | 1014.9 |
| 20260903122032 | 78 | 138 | 2.0 | 6.0 | 0.00 | 0.00 | 0.00 | 72 | 1014.8 |
| 20260903121537 | 78 | 138 | 1.0 | 4.0 | 0.00 | 0.00 | 0.00 | 72 | 1014.8 |
| 20260903121031 | 78 | 138 | 1.0 | 4.0 | 0.00 | 0.00 | 0.00 | 72 | 1014.7 |
| 20260903120531 | 78 | 138 | 0.0 | 5.0 | 0.00 | 0.00 | 0.00 | 72 | 1014.7 |
| 20260903120031 | 78 | 140 | 1.0 | 3.0 | 0.00 | 0.00 | 0.00 | 72 | 1014.7 |
| 20260903115530 | 78 | 140 | 0.0 | 5.0 | 0.00 | 0.00 | 0.00 | 72 | 1014.7 |
| 20260903115029 | 78 | 140 | 1.0 | 5.0 | 0.00 | 0.00 | 0.00 | 72 | 1014.7 |
| 20260903114530 | 78 | 138 | 0.0 | 6.0 | 0.00 | 0.00 | 0.00 | 72 | 1014.7 |
| 20260903114028 | 78 | 142 | 0.0 | 3.0 | 0.00 | 0.00 | 0.00 | 72 | 1014.6 |
| 20260903113528 | 78 | 142 | 1.0 | 3.0 | 0.00 | 0.00 | 0.00 | 72 | 1014.6 |
| 20260903113028 | 78 | 142 | 1.0 | 6.0 | 0.00 | 0.00 | 0.00 | 72 | 1014.5 |
| 20260903112527 | 78 | 142 | 2.0 | 7.0 | 0.00 | 0.00 | 0.00 | 72 | 1014.4 |
| 20260903112028 | 78 | 140 | 1.0 | 6.0 | 0.00 | 0.00 | 0.00 | 72 | 1014.4 |
| 20260903111533 | 78 | 140 | 1.0 | 6.0 | 0.00 | 0.00 | 0.00 | 72 | 1014.4 |
| 20260903111024 | 78 | 140 | 1.0 | 5.0 | 0.00 | 0.00 | 0.00 | 72 | 1014.3 |
| 20260903110524 | 78 | 140 | 1.0 | 2.0 | 0.00 | 0.00 | 0.00 | 72 | 1014.3 |
| 20260903110023 | 78 | 140 | 0.0 | 5.0 | 0.00 | 0.00 | 0.00 | 71 | 1014.3 |
| 20260903105522 | 78 | 140 | 0.0 | 5.0 | 0.00 | 0.00 | 0.00 | 71 | 1014.3 |
| 20260903105022 | 78 | 140 | 0.0 | 4.0 | 0.00 | 0.00 | 0.00 | 71 | 1014.3 |
| 20260903104522 | 78 | 140 | 1.0 | 5.0 | 0.00 | 0.00 | 0.00 | 71 | 1014.3 |
| 20260903104025 | 78 | 140 | 1.0 | 5.0 | 0.00 | 0.00 | 0.00 | 71 | 1014.4 |
| 20260903103521 | 78 | 140 | 0.0 | 6.0 | 0.00 | 0.00 | 0.00 | 71 | 1014.4 |
| 20260903103021 | 78 | 140 | 1.0 | 8.0 | 0.00 | 0.00 | 0.00 | 71 | 1014.5 |
| 20260903102520 | 78 | 134 | 2.0 | 6.0 | 0.00 | 0.00 | 0.00 | 71 | 1014.4 |
| 20260903102022 | 78 | 133 | 1.0 | 8.0 | 0.00 | 0.00 | 0.00 | 71 | 1014.4 |
| 20260903101520 | 78 | 133 | 2.0 | 8.0 | 0.00 | 0.00 | 0.00 | 71 | 1014.4 |
| 20260903101019 | 78 | 127 | 1.0 | 5.0 | 0.00 | 0.00 | 0.00 | 71 | 1014.4 |
| 20260903100520 | 78 | 127 | 1.0 | 5.0 | 0.00 | 0.00 | 0.00 | 71 | 1014.4 |
| 20260903100021 | 78 | 127 | 1.0 | 9.0 | 0.00 | 0.00 | 0.00 | 71 | 1014.4 |
| 20260903095519 | 78 | 127 | 2.0 | 9.0 | 0.00 | 0.00 | 0.00 | 71 | 1014.4 |
| 20260903095019 | 78 | 126 | 1.0 | 7.0 | 0.00 | 0.00 | 0.00 | 71 | 1014.5 |
| 20260903094522 | 78 | 126 | 2.0 | 4.0 | 0.00 | 0.00 | 0.00 | 71 | 1014.5 |
| 20260903094019 | 78 | 126 | 1.0 | 9.0 | 0.00 | 0.00 | 0.00 | 71 | 1014.5 |
| 20260903093523 | 78 | 128 | 2.0 | 9.0 | 0.00 | 0.00 | 0.00 | 71 | 1014.4 |
| 20260903093019 | 78 | 140 | 1.0 | 6.0 | 0.00 | 0.00 | 0.00 | 71 | 1014.4 |